[[{"header":{"parameterUnit":"m.s-1","parameterCategory":1,"la1":30.2991,"la2":30.254,"lo1":-89.0895,"lo2":-89.0444,"dy":0.0017,"dx":0.0017,"nx":28,"ny":28,"refTime":"2024-03-15T21:00:00:Z","depth":0,"parameterNumber":2,"parameterNumberName":"U-component_of_WINDS"},"data":[0,0,0,0,0,0,0,0,0,0,0,0,0,0,0,0,0,0,0,0,0,0,0,0,0,0,0,0,0,0,0,0,0,0,0,0,0,0,0,0,0,0,0,0,0,0,0,0,0,0,0,0,0,0,0,0,0,0,-2.2299,-2.23,0,-2.2358,-2.2358,-2.2359,-2.2265,-2.2262,-2.2258,-2.2255,-2.2312,-2.2317,-2.2321,0,0,0,0,0,0,0,0,0,0,0,0,0,-2.2103,-2.2107,-2.2299,-2.23,-2.2301,-2.2358,-2.2358,-2.2359,-2.2265,-2.2261,-2.2257,-2.2254,-2.2311,-2.2316,-2.2322,0,0,0,0,0,0,0,0,0,0,0,0,0,-2.2177,-2.2108,-2.2299,-2.2261,-2.2258,-2.2358,-2.2358,-2.2359,-2.2266,-2.2261,-2.2256,-2.2252,-2.2309,-2.2316,-2.2323,-2.2461,0,0,-2.2343,-2.2346,0,0,0,0,0,0,0,0,-2.2173,-2.2185,-2.2266,-2.2264,-2.226,-2.2299,-2.231,-2.2394,-2.2267,-2.2263,-2.2255,-2.225,-2.2312,-2.2318,-2.234,-2.2464,-2.2467,-2.2344,-2.2348,-2.2351,-2.2353,0,0,0,0,0,0,0,-2.2168,-2.2182,-2.2322,-2.2267,-2.2264,-2.224,-2.2245,-2.2326,-2.2314,-2.2263,-2.2256,-2.2265,-2.2309,-2.2333,-2.234,-2.2467,-2.2344,-2.235,-2.2354,-2.2357,-2.2707,-2.2712,0,0,0,0,0,0,-2.2168,-2.2178,-2.232,-2.2324,-2.2204,-2.2247,-2.2253,-2.2292,-2.2313,-2.2311,-2.2269,-2.226,-2.2324,-2.2332,-2.2342,-2.2503,-2.2351,-2.2357,-2.2361,-2.2701,-2.2708,-2.2713,0,0,0,0,0,0,-2.2164,-2.2182,-2.2318,-2.2249,-2.2265,-2.2256,-2.23,-2.2295,-2.2319,-2.2317,-2.2314,-2.2295,-2.2321,-2.2332,-2.2432,-2.2504,-2.236,-2.2366,-2.2695,-2.2703,-2.2711,-2.2829,0,0,0,0,0,0,-2.2159,-2.2181,-2.2234,-2.2251,-2.2269,-2.2408,-2.2304,-2.23,-2.2331,-2.232,-2.2341,-2.234,-2.2318,-2.2422,-2.2439,-2.2511,-2.2372,-2.2689,-2.2699,-2.2708,-2.2819,-2.284,-2.2858,0,0,0,0,0,-2.2153,-2.2265,-2.2237,-2.2255,-2.2335,-2.2413,-2.2423,-2.2395,-2.2338,-2.239,-2.2389,-2.2339,-2.2495,-2.2434,-2.2451,-2.2526,-2.2684,-2.2696,-2.2707,-2.281,-2.2836,-2.2858,0,0,0,0,0,0,-2.2256,-2.2267,-2.2236,-2.2358,-2.2385,-2.2397,-2.2462,-2.2424,-2.2468,-2.2456,-2.2419,-2.2425,-2.2532,-2.2539,-2.2471,-2.2661,-2.2579,-2.2595,-2.2651,-2.2676,-2.2695,-2.2689,-2.2377,0,0,0,0,0,-2.2293,-2.2356,-2.2362,-2.2469,-2.2484,-2.2471,-2.2504,-2.2481,-2.2507,-2.2518,-2.2524,-2.2551,-2.2605,-2.2642,-2.2692,-2.2821,-2.2822,-2.2881,-2.2901,-2.2917,-2.293,-2.2996,-2.3022,-2.2752,-2.2752,-2.2752,0,0,-2.237,-2.2384,-2.2425,-2.249,-2.2508,-2.2572,-2.2481,-2.2554,-2.2601,-2.2529,-2.2622,-2.2629,-2.2656,-2.277,-2.2821,-2.278,-2.3006,-2.2932,-2.2946,-2.2949,-2.3011,-2.3037,-2.3059,-2.276,-2.2759,-2.2757,0,0,-2.2542,-2.256,-2.265,-2.267,-2.27,-2.2691,-2.2713,-2.2731,-2.2732,-2.2826,-2.2773,-2.2828,-2.2924,-2.2944,-2.2968,-2.3149,-2.3104,-2.3167,-2.3269,-2.3334,-2.3355,-2.3374,-2.3435,-2.3458,-2.3181,-2.3181,-2.3181,0,-2.2633,-2.2728,-2.27,-2.2776,-2.2805,-2.2745,-2.2834,-2.2856,-2.29,-2.2921,-2.2875,-2.2993,-2.3007,-2.3125,-2.3169,-2.3191,-2.3213,-2.3162,-2.3355,-2.3373,-2.339,-2.3448,-2.3472,-2.3188,-2.3187,-2.3187,-2.3186,0,-2.2837,-2.2905,-2.2974,-2.3019,-2.3056,-2.3139,-2.3122,-2.3163,-2.3137,-2.3133,-2.3229,-2.3245,-2.3296,-2.3323,-2.3299,-2.3437,-2.341,-2.3361,-2.3277,-2.3423,-2.3477,-2.3499,-2.3198,-2.3196,-2.3194,-2.3192,0,0,-2.3072,-2.3102,-2.3127,-2.3146,-2.3175,-2.3226,-2.3306,-2.3357,-2.3392,-2.3425,-2.3489,-2.3572,-2.3526,-2.3553,-2.3531,-2.3589,-2.3728,-2.3531,-2.3531,-2.3564,-2.3877,-2.3911,-2.3938,-2.37,-2.3704,-2.3707,-2.3874,0,-2.3241,-2.3378,-2.3356,-2.3488,-2.3549,-2.3494,-2.3563,-2.3587,-2.3586,-2.3637,-2.3635,-2.3693,-2.363,-2.3645,-2.37,-2.3699,-2.3789,-2.3687,-2.3756,-2.3759,-2.3746,-2.3966,-2.4002,-2.4158,-2.3895,-2.3898,-2.3901,0,-2.3454,-2.3496,-2.3635,-2.3654,-2.3678,-2.3741,-2.3785,-2.3835,-2.3862,-2.3857,-2.3888,-2.3855,-2.3933,-2.3852,-2.3957,-2.3888,-2.3916,-2.392,-2.3925,-2.3927,-2.3836,-2.397,-2.4208,-2.423,-2.3935,-2.3932,-2.393,0,-2.3607,-2.3699,-2.3793,-2.3811,-2.3836,-2.3881,-2.3894,-2.3916,-2.3948,-2.3987,-2.4007,-2.4056,-2.4081,-2.4118,-2.4099,-2.4042,-2.4207,-2.4125,-2.4202,-2.4203,-2.4236,-2.4233,-2.4477,-2.4261,-2.4261,-2.426,-2.426,0,-2.3795,-2.3881,-2.3861,-2.3919,-2.4014,-2.3988,-2.4082,-2.4087,-2.4108,-2.4164,-2.4121,-2.4175,-2.4148,-2.42,-2.4186,-2.4273,-2.4286,-2.4282,-2.4277,-2.4284,-2.4284,-2.4298,-2.4285,-2.4266,-2.4265,-2.4264,-2.4263,0,-2.3979,-2.397,-2.4069,-2.4085,-2.4092,-2.416,-2.4173,-2.4226,-2.4223,-2.4295,-2.4311,-2.4304,-2.4363,-2.4349,-2.4413,-2.4403,-2.4513,-2.4496,-2.4504,-2.4498,-2.4574,-2.4566,-2.4832,-2.4864,-2.4632,-2.4634,-2.4636,0,-2.4097,-2.4162,-2.4186,-2.4221,-2.4237,-2.4295,-2.4328,-2.4305,-2.4341,-2.4377,-2.4425,-2.448,-2.4522,-2.4619,-2.4619,-2.4667,-2.4648,-2.4739,-2.4655,-2.466,-2.4645,-2.4639,-2.4644,-2.4754,-2.4756,-2.4759,-2.476,0,-2.4307,-2.4299,-2.4348,-2.4397,-2.4437,-2.4474,-2.4506,-2.4537,-2.4517,-2.4559,-2.4619,-2.4652,-2.4718,-2.4772,-2.4817,-2.4828,-2.479,-2.4788,-2.4807,-2.4813,-2.4813,-2.481,-2.4544,-2.478,-2.4778,-2.4777,-2.4776,-2.4775,-2.4459,-2.4513,-2.4538,-2.4594,-2.4617,-2.4648,-2.4698,-2.4701,-2.4751,-2.4803,-2.4788,-2.4855,-2.488,-2.4936,-2.4953,-2.5005,-2.497,-2.5,-2.5006,-2.5013,-2.5021,-2.4809,-2.5013,-2.5013,-2.5012,-2.5012,-2.5011,0,-2.4662,-2.4676,-2.4728,-2.4775,-2.4819,-2.4783,-2.4816,-2.4855,-2.4915,-2.4942,-2.4985,-2.5053,-2.5106,-2.5112,-2.5161,-2.5201,-2.5185,-2.5214,-2.5209,-2.5211,-2.5051,-2.5027,-2.5226,-2.5226,-2.5226,-2.5226,-2.5226,-2.5226,-2.4773,-2.4862,-2.4858,-2.4957,-2.497,-2.5037,-2.5059,-2.5087,-2.5108,-2.5186,-2.523,-2.5234,-2.5252,-2.5302,-2.5349,-2.5349,-2.5367,-2.5403,-2.5396,-2.5245,-2.5223,-2.5202,-2.5179,-2.5408,-2.5408,-2.5552,-2.5553,-2.5554]},{"header":{"parameterUnit":"m.s-1","parameterCategory":1,"la1":30.2991,"la2":30.254,"lo1":-89.0895,"lo2":-89.0444,"dy":0.0017,"dx":0.0017,"nx":28,"ny":28,"refTime":"2024-03-15T21:00:00:Z","depth":0,"parameterNumber":3,"parameterNumberName":"V-component_of_WINDS"},"data":[0,0,0,0,0,0,0,0,0,0,0,0,0,0,0,0,0,0,0,0,0,0,0,0,0,0,0,0,0,0,0,0,0,0,0,0,0,0,0,0,0,0,0,0,0,0,0,0,0,0,0,0,0,0,0,0,0,0,3.5797,3.5797,0,3.5796,3.5796,3.5796,3.5827,3.5828,3.5829,3.583,3.5828,3.5827,3.5826,0,0,0,0,0,0,0,0,0,0,0,0,0,3.5824,3.5823,3.5797,3.5797,3.5797,3.5796,3.5796,3.5796,3.5827,3.5828,3.5829,3.583,3.5828,3.5827,3.5826,0,0,0,0,0,0,0,0,0,0,0,0,0,3.5817,3.5823,3.5797,3.5812,3.5813,3.5796,3.5796,3.5796,3.5827,3.5828,3.5829,3.583,3.5828,3.5827,3.5826,3.5793,0,0,3.5822,3.5821,0,0,0,0,0,0,0,0,3.5817,3.5816,3.581,3.5811,3.5813,3.5813,3.5805,3.5795,3.5826,3.5822,3.583,3.5831,3.5822,3.5821,3.5818,3.5793,3.5793,3.5822,3.5821,3.5821,3.582,0,0,0,0,0,0,0,3.5817,3.5816,3.5796,3.581,3.5811,3.5819,3.5819,3.5803,3.5815,3.5822,3.5824,3.5824,3.5823,3.5819,3.5818,3.5793,3.5822,3.5821,3.582,3.582,3.5742,3.574,0,0,0,0,0,0,3.5816,3.5816,3.5796,3.5796,3.5818,3.5817,3.5818,3.5812,3.5815,3.5817,3.5823,3.5825,3.5821,3.582,3.5818,3.5781,3.5821,3.5819,3.5819,3.5743,3.5741,3.574,0,0,0,0,0,0,3.5816,3.5814,3.5796,3.5807,3.5805,3.5815,3.5808,3.5811,3.5808,3.5816,3.5818,3.5817,3.5822,3.582,3.5799,3.5781,3.5819,3.5818,3.5745,3.5743,3.5741,3.5705,0,0,0,0,0,0,3.5817,3.5814,3.5802,3.5806,3.5805,3.5778,3.5807,3.581,3.5805,3.5809,3.5811,3.5812,3.5823,3.5801,3.5798,3.578,3.5817,3.5746,3.5744,3.5741,3.5707,3.5702,3.5697,0,0,0,0,0,3.5818,3.5791,3.5801,3.5799,3.579,3.5777,3.5775,3.5788,3.5804,3.5792,3.5797,3.5812,3.5784,3.5799,3.5796,3.5777,3.5747,3.5744,3.5741,3.571,3.5703,3.5697,0,0,0,0,0,0,3.5784,3.5792,3.5803,3.5777,3.5776,3.5782,3.5767,3.578,3.5774,3.5777,3.5793,3.5793,3.577,3.5771,3.5788,3.5746,3.5768,3.5765,3.5745,3.5739,3.5733,3.5733,3.5816,0,0,0,0,0,3.5774,3.5762,3.577,3.5747,3.5746,3.5756,3.5751,3.5761,3.576,3.5759,3.5763,3.5761,3.5752,3.5746,3.5737,3.5708,3.5709,3.5694,3.5688,3.5684,3.568,3.5665,3.5658,3.573,3.573,3.573,0,0,3.5752,3.5755,3.5747,3.574,3.574,3.5728,3.5756,3.5742,3.5733,3.5757,3.5738,3.5741,3.574,3.5715,3.5704,3.5715,3.566,3.568,3.5676,3.5675,3.5661,3.5654,3.5648,3.5728,3.5728,3.5729,0,0,3.5706,3.5707,3.5688,3.5687,3.5688,3.5695,3.569,3.5694,3.5697,3.5678,3.5696,3.5686,3.5669,3.5668,3.5665,3.5619,3.5633,3.5616,3.5588,3.5572,3.5567,3.5562,3.5545,3.5539,3.5613,3.5613,3.5613,0,3.5678,3.5661,3.5676,3.5661,3.5657,3.5679,3.566,3.5659,3.5656,3.5653,3.5666,3.5646,3.5647,3.5622,3.5611,3.5608,3.5603,3.5616,3.5567,3.5562,3.5557,3.5542,3.5535,3.5611,3.5611,3.5611,3.5611,0,3.5628,3.5615,3.56,3.5597,3.5592,3.5574,3.5586,3.5579,3.5589,3.5595,3.5576,3.5578,3.557,3.5565,3.5575,3.5542,3.5549,3.5564,3.5587,3.5548,3.5534,3.5528,3.5608,3.5608,3.5609,3.5609,0,0,3.5559,3.5566,3.5559,3.5559,3.5561,3.5551,3.5535,3.5529,3.5522,3.5519,3.5506,3.5492,3.5506,3.5503,3.5513,3.5499,3.5463,3.5516,3.5517,3.5506,3.5426,3.5414,3.5407,3.5472,3.5471,3.547,3.5426,0,3.5515,3.5487,3.55,3.5472,3.5461,3.5482,3.5468,3.5467,3.5472,3.5464,3.5469,3.5459,3.5478,3.5477,3.5465,3.547,3.5447,3.5473,3.5459,3.5459,3.5459,3.5399,3.5387,3.5345,3.542,3.5419,3.5419,0,3.5459,3.5454,3.5424,3.5429,3.5425,3.5412,3.5407,3.5398,3.5398,3.5403,3.54,3.5413,3.5397,3.542,3.5398,3.5416,3.5411,3.5413,3.5412,3.541,3.5436,3.5396,3.5332,3.5325,3.541,3.5411,3.5411,0,3.5412,3.5398,3.5379,3.5378,3.5382,3.5373,3.5374,3.5375,3.5371,3.5366,3.5363,3.5357,3.5353,3.5348,3.5359,3.5375,3.5335,3.5359,3.5338,3.5338,3.5329,3.5329,3.5262,3.5326,3.5326,3.5326,3.5327,0,3.536,3.5341,3.5358,3.5346,3.5325,3.534,3.5319,3.5323,3.5324,3.5313,3.5331,3.532,3.5335,3.5326,3.5334,3.5315,3.5313,3.5316,3.5318,3.5314,3.5314,3.5311,3.5314,3.5325,3.5325,3.5325,3.5326,0,3.5304,3.5315,3.5295,3.5301,3.5302,3.5287,3.5292,3.5281,3.5288,3.5273,3.5271,3.5281,3.5271,3.5281,3.5272,3.5277,3.5251,3.5258,3.5251,3.5253,3.5231,3.5233,3.516,3.5151,3.5221,3.522,3.522,0,3.527,3.5256,3.5261,3.5255,3.5256,3.5246,3.5241,3.5256,3.525,3.5249,3.5238,3.523,3.5223,3.5206,3.5212,3.5205,3.5212,3.5187,3.5211,3.5207,3.5211,3.5212,3.521,3.5182,3.5181,3.518,3.518,0,3.5209,3.5215,3.5208,3.5203,3.5197,3.5193,3.5191,3.5185,3.52,3.5193,3.5183,3.5178,3.5169,3.516,3.5155,3.5156,3.517,3.5172,3.5167,3.5162,3.5159,3.516,3.5238,3.5173,3.5174,3.5174,3.5175,3.5175,3.5163,3.5151,3.5153,3.5145,3.5145,3.5142,3.5132,3.5138,3.513,3.5124,3.5133,3.512,3.5121,3.5115,3.5115,3.5105,3.5116,3.5108,3.5106,3.5104,3.5101,3.516,3.5105,3.5105,3.5105,3.5105,3.5105,0,3.5103,3.5105,3.5097,3.5094,3.5087,3.5102,3.51,3.5093,3.5082,3.5082,3.5076,3.5064,3.5056,3.5062,3.5055,3.5046,3.5052,3.5043,3.5044,3.5044,3.5092,3.5097,3.5038,3.5038,3.5038,3.5039,3.5039,3.5039,3.507,3.5052,3.5058,3.504,3.5042,3.5031,3.5028,3.5026,3.5026,3.5013,3.5006,3.501,3.5012,3.5005,3.4998,3.5,3.4997,3.4986,3.499,3.5034,3.5041,3.5047,3.5052,3.4985,3.4985,3.4943,3.4942,3.4942]}]]